N538TW KLXV-KLXV

Flight info

Callsign N538TW
Flight time N/A
Altitude 20000
Route KASE KGWS KEGE
Aircraft B58T/L-SDFGRY/C

Departure

Time 2026-04-21 23:55
Airport Lake County Airport (KLXV)

Arrival

Time N/A
Airport Lake County Airport (KLXV)
Time Latitude Longitude Altitude Speed Heading
2026-04-21 23:18 39.22560 -106.31652 9936 ft 0 kts 256°
2026-04-21 23:45 39.22532 -106.31664 9936 ft 8 kts 172°
2026-04-21 23:45 39.22498 -106.31659 9934 ft 0 kts 175°
2026-04-21 23:46 39.22490 -106.31670 9937 ft 4 kts 252°
2026-04-21 23:46 39.22489 -106.31677 9935 ft 0 kts 264°
2026-04-21 23:48 39.22489 -106.31679 9935 ft 1 kts 264°
2026-04-21 23:48 39.22468 -106.31744 9935 ft 19 kts 215°
2026-04-21 23:48 39.22263 -106.31713 9935 ft 39 kts 170°
2026-04-21 23:48 39.21958 -106.31645 9932 ft 50 kts 170°
2026-04-21 23:49 39.21604 -106.31569 9926 ft 46 kts 171°
2026-04-21 23:49 39.21354 -106.31516 9925 ft 34 kts 169°
2026-04-21 23:49 39.21171 -106.31428 9931 ft 19 kts 97°
2026-04-21 23:49 39.21117 -106.31350 9930 ft 11 kts 191°
2026-04-21 23:50 39.21098 -106.31373 9928 ft 0 kts 264°
2026-04-21 23:50 39.21094 -106.31409 9932 ft 11 kts 261°
2026-04-21 23:51 39.21099 -106.31459 9933 ft 0 kts 354°
2026-04-21 23:54 39.21343 -106.31529 9926 ft 76 kts 352°
2026-04-21 23:54 39.22065 -106.31664 9982 ft 125 kts 347°
2026-04-21 23:54 39.22937 -106.31858 10361 ft 122 kts 330°
2026-04-21 23:54 39.23379 -106.32725 10427 ft 128 kts 269°
2026-04-21 23:55 39.23353 -106.33906 10668 ft 135 kts 269°
2026-04-21 23:55 39.23227 -106.35095 10904 ft 137 kts 237°
2026-04-21 23:55 39.22429 -106.35699 11213 ft 143 kts 183°
2026-04-21 23:55 39.21449 -106.35525 11514 ft 140 kts 173°
2026-04-21 23:56 39.20506 -106.35306 11771 ft 135 kts 172°
2026-04-21 23:56 39.19585 -106.35097 11952 ft 135 kts 173°
2026-04-21 23:56 39.18657 -106.34848 12094 ft 136 kts 172°
2026-04-21 23:56 39.17760 -106.34635 12222 ft 131 kts 172°
2026-04-21 23:57 39.16874 -106.34417 12443 ft 124 kts 172°
2026-04-21 23:57 39.16040 -106.34215 12690 ft 120 kts 172°
2026-04-21 23:57 39.15240 -106.34029 12911 ft 117 kts 172°
2026-04-21 23:57 39.14448 -106.33839 13141 ft 115 kts 173°
2026-04-21 23:58 39.13676 -106.33632 13379 ft 112 kts 173°
2026-04-21 23:58 39.12921 -106.33425 13617 ft 110 kts 173°
2026-04-21 23:58 39.12170 -106.33224 13786 ft 114 kts 172°
2026-04-21 23:58 39.11351 -106.33014 13795 ft 127 kts 173°
2026-04-21 23:59 39.10460 -106.32770 13786 ft 134 kts 172°
2026-04-21 23:59 39.09522 -106.32701 13773 ft 138 kts 188°
2026-04-21 23:59 39.08552 -106.32823 13759 ft 141 kts 188°
2026-04-21 23:59 39.07568 -106.32956 13741 ft 143 kts 189°
2026-04-22 00:00 39.06764 -106.33581 13733 ft 139 kts 238°
2026-04-22 00:00 39.06600 -106.34797 13732 ft 143 kts 274°
2026-04-22 00:00 39.06766 -106.36056 13730 ft 138 kts 275°
2026-04-22 00:00 39.06921 -106.37231 13713 ft 130 kts 275°
2026-04-22 00:01 39.07078 -106.38361 13710 ft 126 kts 274°
2026-04-22 00:01 39.07248 -106.39454 13711 ft 123 kts 275°
2026-04-22 00:01 39.07428 -106.40520 13708 ft 121 kts 276°
2026-04-22 00:01 39.07570 -106.41570 13710 ft 118 kts 272°
2026-04-22 00:02 39.07605 -106.42631 13704 ft 119 kts 263°
2026-04-22 00:02 39.07579 -106.43700 13707 ft 120 kts 263°
2026-04-22 00:02 39.07551 -106.44780 13702 ft 121 kts 263°
2026-04-22 00:02 39.07526 -106.45872 13701 ft 123 kts 263°
2026-04-22 00:03 39.07485 -106.46984 13694 ft 125 kts 264°
2026-04-22 00:03 39.07563 -106.48096 13689 ft 125 kts 278°
2026-04-22 00:03 39.07739 -106.49194 13684 ft 125 kts 278°
2026-04-22 00:03 39.07914 -106.50294 13671 ft 127 kts 277°
2026-04-22 00:04 39.08089 -106.51403 13669 ft 128 kts 277°
2026-04-22 00:04 39.08458 -106.52473 13674 ft 136 kts 298°
2026-04-22 00:04 39.08983 -106.53506 13663 ft 138 kts 297°
2026-04-22 00:04 39.09505 -106.54518 13656 ft 136 kts 297°
2026-04-22 00:05 39.10027 -106.55504 13643 ft 131 kts 298°
2026-04-22 00:05 39.10520 -106.56459 13622 ft 126 kts 297°
2026-04-22 00:05 39.10975 -106.57418 13617 ft 123 kts 291°
2026-04-22 00:05 39.11214 -106.58461 13610 ft 121 kts 278°